Regional Weather Roundup
Issued by NWS

Home | Current Version | Previous Version | Text Only | Print | Product List | Glossary Off
Versions: 1 2 3 4 5 6 7 8 9 10 11 12 13 14 15 16 17 18 19 20 21 22 23 24 25 26 27 28 29 30 31 32 33 34 35 36 37 38 39 40 41 42 43 44 45 46 47 48 49 50

000
ASUS43 KFSD 230002
RWRSD

WEATHER ROUNDUP FOR SOUTH DAKOTA
NATIONAL WEATHER SERVICE SIOUX FALLS SD
600 PM CST WED NOV 22 2017

NOTE: "FAIR" INDICATES FEW OR NO CLOUDS BELOW 12,000 FEET WITH NO
SIGNIFICANT WEATHER AND/OR OBSTRUCTIONS TO VISIBILITY.


SDZ001>005-009-010-012>017-230100-
NORTHWEST AND NORTH CENTRAL SOUTH DAKOTA

CITY           SKY/WX    TMP DP  RH WIND       PRES   REMARKS
BUFFALO          N/A     57  39  51 W14       29.93R
FAITH            N/A     56  39  53 NW12      29.96R
MOBRIDGE       CLEAR     51  37  58 NW6       29.87R
$$

SDZ012>016-024>037-041>051-057-063-072>074-230100-
SOUTHWEST AND SOUTH CENTRAL SOUTH DAKOTA

CITY           SKY/WX    TMP DP  RH WIND       PRES   REMARKS
RAPID CTY ARPT CLEAR     57  37  47 NW7       30.04R
PIERRE         CLOUDY    56  36  47 W8        29.93R
CUSTER         CLOUDY    53  35  50 W8        30.14S
ELLSWORTH AFB  CLEAR     57  38  50 NW12      30.03R
PHILIP         CLEAR     56  40  55 NW10      29.99R
PINE RIDGE     CLOUDY    62  37  39 N5        30.07R
SPEARFISH      FAIR      59  39  47 W14       30.06S
WINNER         FAIR      57  38  48 W9        29.97R
$$

SDZ004>011-016>023-039-040-230100-
NORTHEAST SOUTH DAKOTA

CITY           SKY/WX    TMP DP  RH WIND       PRES   REMARKS
ABERDEEN       CLEAR     31  21  66 S7        29.90R WCI  24
WATERTOWN      CLEAR     31  21  66 S10       29.90F WCI  22
BROOKINGS      CLEAR     34  19  54 S9        29.94R WCI  27
SISSETON         N/A     37  22  54 VRB5G17   29.89S
$$

SDZ017-020-022-023-036>040-048>070-230100-
SOUTHEAST SOUTH DAKOTA

CITY           SKY/WX    TMP DP  RH WIND       PRES   REMARKS
SIOUX FALLS    PTCLDY    38  20  48 SW14      29.97S
HURON          CLOUDY    39  23  52 S9        29.92S
CHAMBERLAIN    CLOUDY    47  32  55 CALM      29.95R
MITCHELL       CLEAR     36  22  56 SE5       29.95F
YANKTON        MOCLDY    42  22  44 S9        29.98F
$$

ABBREVIATIONS USED IN REMARKS
   TC - TEMPERATURE IN CELSIUS
  WCI - WIND CHILL INDEX
   HX - HEAT INDEX
  VSB - VISIBILITY





USA.gov is the U.S. government's official web portal to all federal, state and local government web resources and services.